Regional Weather Roundup
Issued by NWS

Home | Current Version | Previous Version | Text Only | Print | Product List | Glossary On
Versions: 1 2 3 4 5 6 7 8 9 10 11 12 13 14 15 16 17 18 19 20 21 22 23 24 25 26 27
000
ASUS45 KREV 260110
RWRNV
NEVADA REGIONAL WEATHER ROUNDUP
NATIONAL WEATHER SERVICE RENO NV
600 PM PDT TUE APR 25 2017

NOTE: "FAIR" INDICATES FEW OR NO CLOUDS BELOW 12,000 FEET WITH NO
SIGNIFICANT WEATHER AND/OR OBSTRUCTIONS TO VISIBILITY.

NVZ001-003-004-260200-
WESTERN NEVADA

CITY           SKY/WX    TMP DP  RH WIND       PRES   REMARKS
RENO           PTSUNNY   60  36  40 W22G30    29.96R
CARSON CITY    FAIR      57  34  41 W12       29.97R
MINDEN         FAIR      57  37  47 W13G22    29.98R
FALLON         PTSUNNY   61  10  13 N8        29.94S
LOVELOCK       CLOUDY    58  19  22 E3        29.94F
HAWTHORNE      SUNNY     63  19  19 N10       29.92F
$$

NVZ002-CAZ072-073-260200-
NORTHERN AND CENTRAL SIERRA

CITY           SKY/WX    TMP DP  RH WIND       PRES   REMARKS
S. LAKE TAHOE  PTSUNNY   50  34  54 NE9       30.04R
TRUCKEE        CLOUDY    50  36  57 W12G17    30.06R
SQUAW VLY 8000   N/A     34  34 100 W12         N/A
MAMMOTH LAKES  PTSUNNY   62  25  24 N17G25    30.02R
$$

NVZ030-031-036-260200-
NORTHERN NEVADA

CITY           SKY/WX    TMP DP  RH WIND       PRES   REMARKS
ELKO           MOSUNNY   51  24  34 W14       29.95R
WINNEMUCCA     CLOUDY    53  24  32 SW10      29.96R
WENDOVER       MOSUNNY   56  23  27 NW15      29.89S
$$

NVZ035-037-260200-
CENTRAL NEVADA

CITY           SKY/WX    TMP DP  RH WIND       PRES   REMARKS
ELY            SUNNY     49  20  31 NW9       29.94R
EUREKA           N/A     50  23  34 N13       29.96R
$$

NVZ013-014-260200-
SOUTH CENTRAL NEVADA

CITY           SKY/WX    TMP DP  RH WIND       PRES   REMARKS
TONOPAH        SUNNY     59  11  15 NW22G33   29.95R
$$

NVZ017-020-022-260200-
SOUTHERN NEVADA

CITY           SKY/WX    TMP DP  RH WIND       PRES   REMARKS
LAS VEGAS      MOSUNNY   77  16  10 N14G24    29.75R
N. LAS VEGAS   SUNNY     77  18  11 N14G24    29.76R
NELLIS AFB     SUNNY     76  21  12 NE16      29.75R
HENDERSON      SUNNY     74  22  14 N15       29.79R
MERCURY        MOSUNNY   72  13  10 NW13G23   29.82S
$$




USA.gov is the U.S. government's official web portal to all federal, state and local government web resources and services.